Preview of NWS' New Version of Forecast
This preview is not operational and should not be used for support decisions.

Regional Weather Roundup (RWR)

Issued by National Weather Service (NWS)

                            
000
ASUS43 KTOP 182008
RWRKS 

WEATHER ROUNDUP FOR KANSAS
NATIONAL WEATHER SERVICE GOODLAND KS
200 PM CST FRI JAN 18 2019

NOTE:  "FAIR" INDICATES FEW OR NO CLOUDS BELOW 12,000 FEET WITH NO
SIGNIFICANT WEATHER AND/OR OBSTRUCTIONS TO VISIBILITY.

KSZ001>006-013>018-027>032-041>047-182100-
NORTHWEST KANSAS
  
CITY           SKY/WX    TMP DP  RH WIND       PRES   REMARKS
GOODLAND       CLOUDY    28  28 100 N22G29    29.77S FOG     WCI  14  
HILL CITY      CLOUDY    32  31  96 N23G32    29.78R FOG     WCI  19  
RUSSELL        MIX PCPN  34  34 100 NE16      29.69F VSB 1   WCI  24  
$$

KSZ061>065-074>080-084>089-182100-
SOUTHWEST KANSAS
  
CITY           SKY/WX    TMP DP  RH WIND       PRES   REMARKS
DODGE CITY     CLOUDY    39  35  86 N22G29    29.60F FOG     WCI  29  
ELKHART        PTSUNNY   44  36  74 N22       29.65R                  
GARDEN CITY    CLOUDY    32  31  96 N24G33    29.67R WCI  19          
GREAT BEND     CLOUDY    41  39  93 N15       29.65F FOG              
LIBERAL        CLOUDY    36  32  85 N25       29.64R WCI  24          
PRATT          CLOUDY    42  41  95 NE5       29.61F FOG              
$$

KSZ066>073-081>083-090>101-182100-
SOUTHEAST KANSAS
  
CITY           SKY/WX    TMP DP  RH WIND       PRES   REMARKS
CHANUTE        CLOUDY    52  44  74 S13       29.70F                  
COFFEYVILLE    CLOUDY    54  44  69 SE16G26   29.68F                  
HUTCHINSON     FOG       42  42 100 SE6       29.65F VSB 1/4          
MEDICINE LODGE   N/A     46  42  86 SE6       29.58F                  
NEWTON         CLOUDY    41  41 100 SE8       29.67F FOG              
PARSONS        CLOUDY    54  44  69 S13G23    29.69F                  
WICHITA INTL   CLOUDY    45  44  97 SE7       29.64F FOG              
WICHITA JABRA  CLOUDY    43  43 100 SE8       29.65F FOG              
WINFIELD       CLOUDY    45  44  97 SE10G22   29.64F                  
$$

KSZ007>012-019>026-033>040-048>060-102>105-182100-
NORTHEAST KANSAS
  
CITY           SKY/WX    TMP DP  RH WIND       PRES   REMARKS
CONCORDIA      CLOUDY    32  32 100 NE10      29.77F FOG     WCI  24  
EMPORIA        CLOUDY    42  42 100 SE7       29.72F FOG              
LAWRENCE       CLOUDY    39  37  92 E6        29.80F FOG              
MANHATTAN      LGT RAIN  38  37  97 NE12      29.78F FOG     WCI  30  
MARYSVILLE     DRIZZLE   32  32 100 E12       29.81F WCI  23          
OLATHE IND     CLOUDY    37  37 100 E5        29.79S FOG              
OLATHE EXE     CLOUDY    36  36 100 E7        29.77F FOG              
SALINA         CLOUDY    38  38 100 NE14      29.72F FOG     WCI  30  
TOPEKA BILLARD FOG       38  36  92 NE10      29.78F VSB 1/2 WCI  31  
TOPEKA FORBES  FOG       38  37  97 CALM      29.76F VSB 1/4          
$$